Weather History for Adrian, MI

Change the Weather History Date:

Tuesday, August 27, 2013

  Actual Average Record
Temperature  
Mean Temperature 78 °F -  
Max Temperature 87 °F 80 °F 101 °F (1948)
Min Temperature 71 °F 58 °F 45 °F (1964)
Cooling Degree Days 14    
Growing Degree Days 28 (Base 50)    
Moisture  
Dew Point 72 °F    
Average Humidity 84    
Maximum Humidity 94    
Minimum Humidity 70    
Precipitation  
Precipitation 0.01 in - - ()
Sea Level Pressure  
Sea Level Pressure 29.96 in    
Wind  
Wind Speed 6 mph (WSW)    
Max Wind Speed 14 mph    
Max Gust Speed 20 mph    
Visibility 8 miles    
Events Rain    
Averages and records for this station are not official NWS values.
T = Trace of Precipitation, MM = Missing Value Source: NWS Daily Summary

Daily Weather History Graph

Daily Weather History Graph

Search for Another Location

Airport:

Trip Planner

Search our weather history database for the weather conditions in past years. The results will help you decide how hot, cold, wet, or windy it might be!

Date:

Astronomy

Aug. 27, 2013 Rise Set
Actual Time 6:57 AM EDT 8:17 PM EDT
Civil Twilight 6:28 AM EDT 8:46 PM EDT
Nautical Twilight 5:53 AM EDT 9:21 PM EDT
Astronomical Twilight 5:16 AM EDT 9:57 PM EDT
Moon No Moon Rise 2:01 PM EDT (8/27)
Length of Visible Light 14h 18m
Length of Day
13h 20m
Waning Gibbous, 57% of the Moon is Illuminated
Aug 27
Waning Gibbous
Aug 28
Last Quarter
Sep 5
New
Sep 12
First Quarter
Sep 19
Full

Hourly Weather History & Observations

Time (EDT) Temp. Heat Index Dew Point Humidity Pressure Visibility Wind Dir Wind Speed Gust Speed Precip Events Conditions
12:53 AM 73.0 °F - 70.0 °F 90% 30.01 in 8.0 mi West 4.6 mph - 0.00 in   Mostly Cloudy
1:53 AM 73.0 °F - 70.0 °F 90% 30.01 in 8.0 mi WSW 4.6 mph - N/A   Overcast
2:53 AM 72.0 °F - 69.1 °F 91% 30.00 in 7.0 mi WSW 3.5 mph - N/A   Mostly Cloudy
3:53 AM 71.1 °F - 69.1 °F 93% 30.00 in 6.0 mi Calm Calm - N/A   Clear
4:53 AM 71.1 °F - 69.1 °F 93% 29.98 in 6.0 mi WSW 5.8 mph - N/A   Clear
5:53 AM 71.1 °F - 69.1 °F 93% 29.97 in 6.0 mi WSW 5.8 mph - N/A   Partly Cloudy
6:53 AM 72.0 °F - 69.1 °F 91% 29.99 in 7.0 mi West 6.9 mph - N/A   Mostly Cloudy
7:53 AM 73.0 °F - 69.1 °F 87% 30.03 in 7.0 mi NW 11.5 mph - 0.00 in Rain Light Rain
8:53 AM 73.0 °F - 70.0 °F 90% 30.01 in 8.0 mi NE 4.6 mph - 0.01 in Rain Light Rain
9:53 AM 73.9 °F - 70.0 °F 87% 29.99 in 10.0 mi SSW 4.6 mph - 0.00 in   Partly Cloudy
10:42 AM 73.4 °F - 71.6 °F 94% 30.04 in 7.0 mi NW 8.1 mph - 0.00 in Rain Light Rain
10:53 AM 73.9 °F - 72.0 °F 93% 30.02 in 6.0 mi West 3.5 mph - 0.00 in Rain Light Rain
11:01 AM 75.2 °F - 71.6 °F 89% 30.03 in 5.0 mi West 4.6 mph - N/A   Scattered Clouds
11:53 AM 75.9 °F - 72.0 °F 87% 29.99 in 7.0 mi WSW 11.5 mph - N/A   Clear
12:53 PM 78.1 °F - 72.0 °F 81% 29.99 in 9.0 mi SW 6.9 mph - N/A   Clear
1:53 PM 81.0 °F 85.2 °F 72.0 °F 74% 29.96 in 10.0 mi SW 13.8 mph - N/A   Clear
2:53 PM 82.0 °F 87.4 °F 73.0 °F 74% 29.95 in 8.0 mi WSW 6.9 mph - N/A   Clear
3:53 PM 82.9 °F 89.4 °F 73.9 °F 74% 29.93 in 8.0 mi WSW 11.5 mph 19.6 mph N/A   Clear
4:53 PM 82.9 °F 89.4 °F 73.9 °F 74% 29.92 in 7.0 mi SW 11.5 mph - N/A   Clear
5:53 PM 84.9 °F 93.3 °F 75.0 °F 72% 29.90 in 8.0 mi SW 10.4 mph - N/A   Clear
6:53 PM 86.0 °F 95.1 °F 75.0 °F 70% 29.89 in 9.0 mi SW 9.2 mph - N/A   Clear
7:53 PM 84.0 °F 91.2 °F 73.9 °F 72% 29.89 in 9.0 mi WSW 4.6 mph - N/A   Clear
8:53 PM 82.0 °F 87.4 °F 73.0 °F 74% 29.89 in 10.0 mi SSW 3.5 mph - N/A   Mostly Cloudy
9:53 PM 80.1 °F 85.1 °F 75.0 °F 85% 29.90 in 9.0 mi South 5.8 mph - N/A   Overcast
10:53 PM 80.1 °F 84.2 °F 73.0 °F 79% 29.88 in 10.0 mi SSW 6.9 mph - N/A   Mostly Cloudy
11:53 PM 79.0 °F - 73.0 °F 82% 29.87 in 10.0 mi SW 9.2 mph - N/A   Mostly Cloudy